Time,TemperatureF,DewpointF,PressureIn,WindDirection,WindDirectionDegrees,WindSpeedMPH,WindSpeedGustMPH,Humidity,HourlyPrecipIn,Conditions,Clouds,dailyrainin,SoftwareType,DateUTC
2013-03-17 00:03:00,56.0,-99.9,-100.00,North,-999,-999.0,-999.0,-999,0.00,,,0.06,,2013-03-17 04:03:00,
2013-03-17 00:13:00,56.0,-99.9,-100.00,North,-999,-999.0,-999.0,-999,0.00,,,0.06,,2013-03-17 04:13:00,
2013-03-17 00:53:00,52.0,-99.9,-100.00,North,-999,-999.0,-999.0,-999,0.00,,,0.06,,2013-03-17 04:53:00,
2013-03-17 01:03:00,52.0,-99.9,-100.00,North,-999,-999.0,-999.0,-999,0.00,,,0.06,,2013-03-17 05:03:00,
2013-03-17 01:12:00,52.0,-99.9,-100.00,North,-999,-999.0,-999.0,-999,0.00,,,0.06,,2013-03-17 05:12:00,
2013-03-17 01:53:00,51.0,-99.9,-100.00,North,-999,-999.0,-999.0,-999,0.00,,,0.06,,2013-03-17 05:53:00,
2013-03-17 02:03:00,51.0,-99.9,-100.00,North,-999,-999.0,-999.0,-999,0.00,,,0.06,,2013-03-17 06:03:00,
2013-03-17 02:13:00,51.0,-99.9,-100.00,North,-999,-999.0,-999.0,-999,0.00,,,0.06,,2013-03-17 06:13:00,
2013-03-17 02:53:00,51.0,-99.9,-100.00,North,-999,-999.0,-999.0,-999,0.00,,,0.06,,2013-03-17 06:53:00,
2013-03-17 03:02:00,51.0,-99.9,-100.00,North,-999,-999.0,-999.0,-999,0.00,,,0.06,,2013-03-17 07:02:00,
2013-03-17 03:12:00,51.0,-99.9,-100.00,North,-999,-999.0,-999.0,-999,0.00,,,0.06,,2013-03-17 07:12:00,
2013-03-17 04:53:00,50.0,-99.9,-100.00,North,-999,-999.0,-999.0,-999,0.00,,,0.07,,2013-03-17 08:53:00,
2013-03-17 05:03:00,50.0,-99.9,-100.00,North,-999,-999.0,-999.0,-999,0.00,,,0.07,,2013-03-17 09:03:00,
2013-03-17 05:13:00,50.0,-99.9,-100.00,North,-999,-999.0,-999.0,-999,0.00,,,0.07,,2013-03-17 09:13:00,
2013-03-17 06:03:00,47.0,-99.9,-100.00,North,-999,-999.0,-999.0,-999,0.00,,,0.07,,2013-03-17 10:03:00,
2013-03-17 06:14:00,47.0,-99.9,-100.00,North,-999,-999.0,-999.0,-999,0.00,,,0.07,,2013-03-17 10:14:00,
2013-03-17 06:53:00,47.0,-99.9,-100.00,North,-999,-999.0,-999.0,-999,0.00,,,0.07,,2013-03-17 10:53:00,
2013-03-17 07:03:00,47.0,-99.9,-100.00,North,-999,-999.0,-999.0,-999,0.00,,,0.07,,2013-03-17 11:03:00,
2013-03-17 07:13:00,47.0,-99.9,-100.00,North,-999,-999.0,-999.0,-999,0.00,,,0.07,,2013-03-17 11:13:00,
2013-03-17 07:53:00,45.0,-99.9,-100.00,North,-999,-999.0,-999.0,-999,0.00,,,0.07,,2013-03-17 11:53:00,
2013-03-17 08:03:00,45.0,-99.9,-100.00,North,-999,-999.0,-999.0,-999,0.00,,,0.07,,2013-03-17 12:03:00,
2013-03-17 08:13:00,45.0,-99.9,-100.00,North,-999,-999.0,-999.0,-999,0.00,,,0.07,,2013-03-17 12:13:00,
2013-03-17 08:53:00,45.0,-99.9,-100.00,North,-999,-999.0,-999.0,-999,0.00,,,0.07,,2013-03-17 12:53:00,
2013-03-17 09:02:00,45.0,-99.9,-100.00,North,-999,-999.0,-999.0,-999,0.00,,,0.07,,2013-03-17 13:02:00,
2013-03-17 09:13:00,45.0,-99.9,-100.00,North,-999,-999.0,-999.0,-999,0.00,,,0.07,,2013-03-17 13:13:00,
2013-03-17 11:02:00,46.0,-99.9,-100.00,North,-999,-999.0,-999.0,-999,0.00,,,0.05,,2013-03-17 15:02:00,
2013-03-17 11:13:00,46.0,-99.9,-100.00,North,-999,-999.0,-999.0,-999,0.00,,,0.05,,2013-03-17 15:13:00,
2013-03-17 11:53:00,45.0,-99.9,-100.00,North,-999,-999.0,-999.0,-999,0.00,,,-99.99,,2013-03-17 15:53:00,
2013-03-17 12:03:00,45.0,-99.9,-100.00,North,-999,-999.0,-999.0,-999,0.00,,,-99.99,,2013-03-17 16:03:00,
2013-03-17 12:13:00,45.0,-99.9,-100.00,North,-999,-999.0,-999.0,-999,0.00,,,-99.99,,2013-03-17 16:13:00,
2013-03-17 13:03:00,44.0,-99.9,-100.00,North,-999,-999.0,-999.0,-999,0.00,,,0.05,,2013-03-17 17:03:00,
2013-03-17 13:12:00,44.0,-99.9,-100.00,North,-999,-999.0,-999.0,-999,0.00,,,0.05,,2013-03-17 17:12:00,
2013-03-17 13:53:00,43.0,-99.9,-100.00,North,-999,-999.0,-999.0,-999,0.00,,,0.05,,2013-03-17 17:53:00,
2013-03-17 14:03:00,43.0,-99.9,-100.00,North,-999,-999.0,-999.0,-999,0.00,,,0.05,,2013-03-17 18:03:00,
2013-03-17 14:13:00,43.0,-99.9,-100.00,North,-999,-999.0,-999.0,-999,0.00,,,0.05,,2013-03-17 18:13:00,
2013-03-17 14:52:00,43.0,-99.9,-100.00,North,-999,-999.0,-999.0,-999,0.00,,,0.05,,2013-03-17 18:52:00,
2013-03-17 15:03:00,43.0,-99.9,-100.00,North,-999,-999.0,-999.0,-999,0.00,,,0.05,,2013-03-17 19:03:00,
2013-03-17 15:13:00,43.0,-99.9,-100.00,North,-999,-999.0,-999.0,-999,0.00,,,0.05,,2013-03-17 19:13:00,
2013-03-17 15:54:00,43.0,-99.9,-100.00,North,-999,-999.0,-999.0,-999,0.00,,,0.05,,2013-03-17 19:54:00,
2013-03-17 16:03:00,43.0,-99.9,-100.00,North,-999,-999.0,-999.0,-999,0.00,,,0.05,,2013-03-17 20:03:00,
2013-03-17 16:12:00,43.0,-99.9,-100.00,North,-999,-999.0,-999.0,-999,0.00,,,0.05,,2013-03-17 20:12:00,
2013-03-17 16:53:00,42.0,-99.9,-100.00,North,-999,-999.0,-999.0,-999,0.00,,,0.05,,2013-03-17 20:53:00,
2013-03-17 17:03:00,42.0,-99.9,-100.00,North,-999,-999.0,-999.0,-999,0.00,,,0.05,,2013-03-17 21:03:00,
2013-03-17 17:13:00,42.0,-99.9,-100.00,North,-999,-999.0,-999.0,-999,0.00,,,0.05,,2013-03-17 21:13:00,
2013-03-17 17:53:00,41.0,-99.9,-100.00,North,-999,-999.0,-999.0,-999,0.00,,,0.05,,2013-03-17 21:53:00,
2013-03-17 18:03:00,41.0,-99.9,-100.00,North,-999,-999.0,-999.0,-999,0.00,,,0.05,,2013-03-17 22:03:00,
2013-03-17 18:13:00,41.0,-99.9,-100.00,North,-999,-999.0,-999.0,-999,0.00,,,0.05,,2013-03-17 22:13:00,
2013-03-17 18:53:00,40.0,-99.9,-100.00,North,-999,-999.0,-999.0,-999,0.00,,,0.05,,2013-03-17 22:53:00,
2013-03-17 19:13:00,40.0,-99.9,-100.00,North,-999,-999.0,-999.0,-999,0.00,,,0.05,,2013-03-17 23:13:00,
2013-03-17 20:04:00,40.0,-99.9,-100.00,North,-999,-999.0,-999.0,-999,0.00,,,0.05,,2013-03-18 00:04:00,
2013-03-17 20:13:00,40.0,-99.9,-100.00,North,-999,-999.0,-999.0,-999,0.00,,,0.05,,2013-03-18 00:13:00,
2013-03-17 20:53:00,40.0,-99.9,-100.00,North,-999,-999.0,-999.0,-999,0.00,,,0.01,,2013-03-18 00:53:00,
2013-03-17 21:02:00,40.0,-99.9,-100.00,North,-999,-999.0,-999.0,-999,0.00,,,0.01,,2013-03-18 01:02:00,
2013-03-17 21:13:00,40.0,-99.9,-100.00,North,-999,-999.0,-999.0,-999,0.00,,,0.01,,2013-03-18 01:13:00,
2013-03-17 21:52:00,40.0,-99.9,-100.00,North,-999,-999.0,-999.0,-999,0.00,,,0.01,,2013-03-18 01:52:00,
2013-03-17 22:03:00,40.0,-99.9,-100.00,North,-999,-999.0,-999.0,-999,0.00,,,0.01,,2013-03-18 02:03:00,
2013-03-17 22:12:00,40.0,-99.9,-100.00,North,-999,-999.0,-999.0,-999,0.00,,,0.01,,2013-03-18 02:12:00,
2013-03-17 22:53:00,40.0,-99.9,-100.00,North,-999,-999.0,-999.0,-999,0.00,,,0.01,,2013-03-18 02:53:00,
2013-03-17 23:03:00,40.0,-99.9,-100.00,North,-999,-999.0,-999.0,-999,0.00,,,0.01,,2013-03-18 03:03:00,
2013-03-17 23:12:00,40.0,-99.9,-100.00,North,-999,-999.0,-999.0,-999,0.00,,,0.01,,2013-03-18 03:12:00,
2013-03-17 23:53:00,39.0,-99.9,-100.00,North,-999,-999.0,-999.0,-999,0.00,,,0.01,,2013-03-18 03:53:00,